{"data":{"norad_id":58596,"epoch":"2026-05-25T03:26:32.760672Z","epoch_age_seconds":69388,"freshness":"FRESH","line1":"1 58596U 23200H   26145.14343473  .00001170  00000+0  52022-4 0  9990","line2":"2 58596  43.0003 300.3639 0000788 284.2702  75.8062 15.27574244137142","mean_motion":15.27574244,"eccentricity":7.88e-5,"inclination_deg":43.0003,"raan_deg":300.3639,"arg_perigee_deg":284.2702,"mean_anomaly_deg":75.8062,"bstar":5.2022e-5,"rev_number":13714,"period_min":94.267103916947,"perigee_km":482.52566880595,"apogee_km":483.60699445102,"semimajor_km":6861.2033316285,"source":"CELESTRAK","updated_at":"2026-05-25T13:38:18.666419Z"}}